{"data":{"norad_id":64824,"intl_designator":"2025-151J","name":"KUIPER-00077","alt_names":[],"object_type":"PAYLOAD","status":"ACTIVE","operator":null,"country":"US","launch_date":"2025-07-16","launch_site_code":"AFETR","launch_vehicle":null,"mission":null,"orbit_class":"UNKNOWN","rcs_meters":null,"size_class":null,"mass_kg":null,"dimensions":null,"purposes":[],"wikipedia_slug":null,"has_3d_model":false,"image_url":null,"decayed_at":null,"tle_current":{"epoch":"2026-09-21T20:51:57.937248Z","epoch_age_seconds":56217,"freshness":"FRESH","line1":"1 64824U 25151J   26264.86942057  .00001878  00000+0  27533-3 0  9995","line2":"2 64824  51.9013 150.6174 0001114  94.4132 265.6958 14.79929292 64396","mean_motion":14.79929292,"eccentricity":0.0001114,"inclination_deg":51.9013,"raan_deg":150.6174,"arg_perigee_deg":94.4132,"mean_anomaly_deg":265.6958,"bstar":0.00027533,"rev_number":6439,"period_min":97.30194596351,"perigee_km":628.76667840173,"apogee_km":630.32799047145,"semimajor_km":7007.6843344366,"source":"CELESTRAK","updated_at":"2026-09-22T09:00:29.975437Z"}}}